Location: Malanoce
(44.2500°N, 7.4667°E)
Time: 04:45:07
(UTC+00:00)

Cosmos 2369 Rocket - Pass Details

Date: 17 November 2025
Orbit: 826 x 853 km, 71.0° (Epoch: 09 December)

Event Time Altitude Azimuth Distance (km) Brightness Sun altitude
Rises 18:00:15 0° 171° (S) 3,353 5.3 -21.2°
Reaches altitude 10° 18:02:58 10° 159° (SSE) 2,427 4.4 -21.7°
Enters shadow 18:04:26 17° 149° (SSE) 2,003 3.9 -21.9°
